Location: Écuvilly
(49.6505°N, 2.9206°E)
Time: 07:45:57
(UTC+00:00)

CZ-4C R/B - Pass Details

Date: 17 November 2025
Orbit: 487 x 1493 km, 63.4° (Epoch: 12 December)

Event Time Altitude Azimuth Distance (km) Brightness Sun altitude
Rises 20:02:56 0° 308° (NW) 3,321 6.1 -38.4°
Reaches altitude 10° 20:05:32 10° 321° (NW) 2,544 5.2 -38.8°
Enters shadow 20:07:52 20° 341° (NNW) 2,031 4.4 -39.2°
